Wind_Speed
12 13 13 14 15 15 16 16 17 18 19 20 22 23 25 26 27 26 23 17 17 15 13 11 8 6 5 5 4 5 5 6 6 9 8 10 15 17 12 12 14 10 12 13 17
13 13 13 15 15 15 15 15 15 15 16 17 17 19 20 22 25 24 20 21 20 19 18 13 11 8 6 4 5 7 5 6 6 4 7 10 12 13 15 12 13 15 15 14 14
14 15 14 14 15 16 16 15 14 14 14 14 14 14 16 17 19 21 21 22 23 22 20 17 13 9 3 4 5 13 4 8 6 8 5 10 13 12 11 15 12 12 18 18 17
14 14 16 15 15 16 16 16 15 14 13 13 12 11 11 12 6 14 20 21 23 24 23 18 14 10 4 3 8 4 10 14 12 12 9 11 10 10 11 12 15 14 14 17 18
16 15 15 16 16 16 16 16 16 15 14 12 11 10 10 9 9 11 19 22 23 25 24 21 17 12 5 2 2 5 10 12 15 12 11 11 10 8 10 9 12 16 16 17 19
18 18 16 16 16 16 16 17 16 15 14 13 11 10 9 6 16 14 20 24 25 25 25 23 17 12 7 3 5 10 12 15 19 13 10 10 9 8 8 9 10 12 16 14 16
20 19 19 17 17 16 16 17 16 16 15 13 12 11 8 7 15 16 16 24 27 27 28 22 18 15 10 7 7 13 17 19 23 16 13 11 6 6 5 11 9 9 14 17 15
22 21 20 20 18 16 17 18 15 16 16 14 13 12 6 10 10 18 11 20 27 29 30 25 21 17 13 8 9 17 21 24 24 19 13 15 4 5 5 5 8 11 11 14 17
23 22 22 21 20 18 17 20 16 16 17 16 14 12 7 8 12 10 15 17 26 29 29 26 24 21 17 11 12 22 28 27 26 24 17 15 7 6 6 5 5 7 14 14 16
23 24 23 22 21 20 18 19 18 17 17 17 16 13 12 16 19 15 15 19 24 29 29 28 27 24 21 15 17 26 30 29 25 27 24 21 14 7 5 5 3 3 10 17 16
22 22 24 23 22 21 19 19 19 20 18 17 16 15 11 18 17 17 18 21 26 30 30 30 32 32 24 15 10 19 31 28 17 22 23 24 23 17 12 6 4 8 8 12 16
24 22 21 23 23 22 21 19 20 22 22 19 17 21 18 19 20 20 21 25 29 30 30 32 38 31 24 16 16 22 19 21 17 23 21 23 26 27 23 16 4 6 10 13 16
25 24 21 21 23 22 20 20 20 22 26 21 21 22 22 25 23 24 26 26 29 32 33 35 37 33 27 20 18 18 18 16 10 6 13 19 29 31 32 25 17 15 14 14 11
22 25 24 18 20 22 20 19 18 19 18 27 19 19 25 31 29 25 28 29 28 33 34 31 32 34 31 26 20 22 22 14 13 11 14 16 9 24 33 31 25 20 18 15 16
22 22 23 20 18 19 20 17 15 14 5 5 7 15 20 35 25 28 29 32 31 29 35 33 33 36 31 32 25 25 24 19 16 17 19 16 10 17 19 33 34 28 25 18 16
23 22 21 19 17 21 21 17 15 9 9 6 7 7 16 31 36 19 33 33 32 26 27 29 22 34 42 34 30 30 24 18 16 15 6 16 25 18 26 17 13 21 27 25 20
24 21 23 17 17 20 23 20 15 12 10 11 10 10 8 19 37 25 35 36 36 24 30 30 34 24 28 42 36 29 21 3 3 2 8 14 16 28 16 17 16 17 17 17 19
27 23 20 21 21 20 25 26 21 12 32 6 13 12 12 15 31 36 26 36 38 33 20 27 19 41 28 33 32 33 29 12 7 4 6 16 12 35 27 27 22 16 20 18 23
28 23 21 23 24 22 28 34 27 17 14 34 15 13 9 11 18 36 39 36 39 40 24 17 22 16 40 28 31 29 23 24 23 14 4 9 17 19 15 17 12 18 19 20 23
27 22 22 23 25 23 32 49 34 25 18 22 35 17 14 15 20 27 43 29 42 36 34 19 8 27 16 33 33 30 23 15 11 5 5 7 10 13 11 14 16 20 20 17 17
24 21 21 21 25 26 39 43 44 25 28 21 21 14 15 16 23 27 34 36 32 37 34 29 19 7 24 24 30 31 31 26 19 13 7 4 18 26 23 16 17 19 15 14 13
22 17 17 20 23 28 36 37 38 42 32 35 32 24 16 14 19 31 25 39 25 26 38 38 19 27 29 10 16 28 29 30 26 11 10 15 27 11 11 15 18 19 15 15 13
23 19 22 22 24 25 26 30 34 33 41 36 37 28 35 34 22 19 20 24 16 31 26 36 39 31 29 29 35 31 24 26 27 25 19 13 22 23 22 19 19 15 15 14 15
21 16 19 25 29 29 28 25 26 29 36 41 39 31 34 32 31 18 16 22 31 22 19 13 33 33 35 32 23 28 34 35 30 28 22 28 26 26 27 23 16 15 14 15 17
19 19 22 12 19 21 24 18 19 24 30 34 44 34 30 34 37 31 27 23 22 26 22 10 25 35 40 42 39 38 32 29 40 36 30 29 24 24 25 26 24 18 14 19 22
17 19 26 28 23 21 12 9 21 22 28 29 31 26 29 40 38 26 25 37 36 27 19 12 20 22 35 35 41 42 41 41 34 34 38 34 30 26 31 29 27 22 22 23 27
17 18 23 27 24 24 22 20 15 20 24 28 22 26 28 27 30 33 34 31 32 29 21 15 17 22 26 25 38 35 47 45 40 37 33 33 29 22 34 36 29 26 25 24 28
Wind_Direction
283 281 280 278 276 274 273 272 270 270 268 265 262 257 252 247 246 245 242 238 240 243 238 257 270 280 292 327 342 335 331 315 208 192 169 120 82 79 96 116 138 151 147 145 144
292 291 290 289 287 285 281 278 276 275 272 270 267 263 255 247 241 240 234 230 227 232 230 243 249 265 278 301 311 326 305 253 227 198 143 109 82 72 86 106 130 140 142 136 135
290 293 294 295 295 294 290 286 283 281 279 275 272 270 262 249 241 237 227 222 221 221 226 233 240 252 284 330 321 309 226 210 191 213 150 112 98 75 79 95 96 120 134 132 133
285 287 293 295 295 295 294 292 287 283 282 277 275 273 264 247 228 227 215 214 215 215 221 225 230 240 227 13 345 271 190 192 191 187 135 102 100 105 101 105 111 121 124 128 132
283 285 286 290 295 297 296 293 289 285 282 276 275 273 265 246 198 203 199 204 208 211 214 221 223 228 221 45 199 187 192 172 167 146 133 117 104 98 121 115 114 127 129 130 134
281 282 283 286 290 294 297 296 291 283 280 275 269 268 264 242 204 202 194 196 203 207 210 216 218 216 197 129 148 191 180 168 171 158 145 133 118 102 117 144 129 131 133 136 135
278 278 282 283 287 291 293 292 293 285 278 273 266 263 254 214 204 202 200 194 197 201 206 210 213 206 199 152 156 186 182 179 187 182 171 153 146 119 120 139 150 149 146 144 144
278 277 277 280 282 287 290 289 291 285 277 269 260 257 242 227 215 204 204 202 196 200 204 202 206 199 193 165 171 184 190 183 195 195 185 179 209 137 124 99 140 171 172 158 147
274 276 276 275 277 281 285 288 289 284 277 269 257 256 227 203 179 190 215 213 199 198 205 201 204 202 200 177 177 180 183 195 202 198 211 206 227 213 142 94 116 162 183 179 175
274 271 272 274 273 276 278 281 286 283 279 274 263 246 223 203 192 201 204 204 199 197 201 200 202 204 204 190 182 179 190 194 210 207 217 231 230 261 207 124 120 130 182 187 189
281 274 268 269 271 273 273 277 280 281 277 271 260 233 229 212 212 201 194 196 195 194 198 199 204 206 206 192 189 201 193 201 219 229 230 242 243 254 250 211 196 148 139 163 173
282 278 271 264 266 270 271 273 275 276 281 278 264 244 217 207 205 203 192 193 197 190 194 201 207 204 207 205 187 175 188 209 228 228 249 258 260 263 256 262 232 178 158 151 160
284 281 271 264 259 262 267 267 271 279 283 275 266 249 214 216 213 203 201 191 198 195 196 204 204 205 207 212 206 212 218 221 235 237 242 256 263 258 255 239 228 212 195 196 188
283 281 276 261 258 256 258 259 266 276 290 281 268 248 220 212 223 206 208 198 197 201 199 206 205 211 212 213 215 225 228 241 266 281 290 282 261 258 248 241 239 222 214 198 199
289 282 277 267 250 246 245 247 247 261 308 264 247 224 211 210 222 211 211 203 205 199 202 207 208 210 216 217 217 228 239 246 265 288 291 239 228 252 243 241 245 239 232 219 212
291 287 277 270 249 236 235 231 222 216 242 245 223 231 225 205 214 213 211 208 208 210 215 215 215 215 222 224 226 236 245 249 272 283 214 257 215 248 240 243 267 260 243 242 227
286 283 282 266 249 231 222 216 205 221 226 242 227 233 235 220 204 214 206 206 204 205 218 221 220 212 215 223 229 234 234 250 306 229 216 272 222 249 255 257 268 271 268 249 241
286 278 273 266 253 231 215 206 217 235 208 216 185 203 218 212 212 206 206 207 210 212 218 219 224 219 211 215 222 233 234 205 197 193 233 234 222 250 257 256 268 275 281 262 249
289 280 265 256 256 234 217 216 224 214 201 216 203 219 187 202 208 214 221 219 216 210 210 216 231 213 224 221 220 221 225 230 239 256 220 237 260 264 243 242 262 295 285 251 240
296 287 267 254 251 241 228 226 228 211 211 217 231 241 248 239 212 210 215 226 220 219 216 217 241 232 215 220 227 228 227 211 204 157 214 224 224 235 241 266 266 287 299 258 242
291 287 271 250 245 236 231 234 235 216 209 216 218 221 222 210 208 209 211 222 225 223 219 216 224 211 214 219 222 219 229 238 247 241 187 213 249 251 259 277 278 286 261 272 230
279 269 266 248 244 240 238 238 240 239 214 223 234 217 211 208 198 206 210 220 219 221 222 223 233 247 239 192 229 234 238 237 230 223 226 244 246 240 248 264 284 281 251 250 227
270 256 251 243 247 246 247 244 239 235 226 227 239 241 238 244 248 239 216 199 190 212 222 226 227 240 254 251 244 247 236 233 241 240 239 234 258 249 253 276 279 258 236 229 233
272 259 250 243 242 246 249 247 243 236 232 224 234 239 234 231 235 233 214 211 210 200 202 222 231 224 229 236 234 240 243 240 243 252 247 250 269 263 257 265 259 245 248 232 232
266 258 243 229 229 233 244 241 244 242 230 233 233 229 227 234 235 233 228 211 207 206 209 258 236 232 241 245 248 244 248 246 240 252 249 262 273 268 259 258 254 252 235 235 221
269 258 253 250 237 225 215 220 221 214 222 230 229 228 234 238 241 240 245 244 239 223 247 253 239 239 238 243 245 250 253 248 249 251 254 255 258 268 264 265 255 243 242 245 219
274 267 263 257 259 248 248 241 231 223 214 219 218 223 227 234 238 242 239 237 234 234 237 214 217 236 244 242 237 243 244 248 249 246 243 248 256 277 261 258 255 244 240 243 234
Height
3169 3168 3167 3166 3166 3165 3164 3164 3163 3162 3161 3161 3161 3162 3163 3165 3167 3169 3173 3179 3180 3181 3182 3183 3184 3185 3186 3186 3186 3186 3186 3185 3185 3185 3184 3182 3181 3180 3181 3181 3182 3183 3184 3185 3186
3165 3165 3164 3163 3163 3162 3161 3161 3160 3159 3158 3157 3156 3156 3158 3159 3161 3164 3171 3173 3175 3178 3179 3181 3183 3184 3186 3187 3186 3185 3185 3184 3185 3186 3185 3184 3184 3184 3183 3183 3183 3184 3185 3187 3189
3163 3162 3161 3161 3160 3159 3157 3157 3156 3155 3154 3154 3153 3153 3153 3154 3156 3159 3164 3168 3171 3175 3177 3179 3182 3184 3185 3186 3185 3182 3182 3183 3186 3187 3187 3186 3186 3186 3186 3185 3186 3186 3187 3188 3190
3162 3160 3159 3158 3157 3156 3154 3153 3153 3152 3151 3151 3150 3150 3149 3151 3156 3154 3158 3163 3167 3171 3174 3177 3180 3182 3184 3186 3183 3181 3181 3183 3186 3187 3187 3187 3187 3188 3189 3189 3188 3189 3190 3191 3192
3158 3158 3157 3155 3154 3153 3152 3150 3149 3148 3148 3148 3148 3147 3148 3149 3151 3151 3154 3159 3164 3168 3172 3175 3178 3182 3184 3185 3183 3181 3182 3184 3187 3188 3189 3189 3189 3190 3191 3191 3191 3191 3192 3193 3193
3155 3154 3154 3153 3152 3150 3149 3147 3146 3146 3145 3145 3145 3145 3145 3147 3147 3149 3151 3156 3160 3165 3169 3172 3177 3181 3183 3184 3183 3181 3184 3186 3188 3188 3189 3190 3190 3191 3192 3193 3193 3194 3194 3195 3196
3152 3151 3150 3150 3149 3148 3146 3144 3143 3142 3142 3142 3142 3142 3143 3145 3144 3147 3150 3153 3157 3162 3166 3171 3175 3179 3182 3183 3182 3182 3186 3188 3189 3189 3190 3191 3193 3192 3193 3193 3195 3196 3196 3196 3198
3147 3147 3147 3145 3145 3145 3143 3141 3140 3139 3139 3139 3139 3140 3141 3142 3143 3146 3148 3151 3154 3159 3163 3167 3172 3176 3180 3181 3181 3183 3186 3187 3189 3189 3191 3193 3193 3193 3193 3194 3194 3196 3198 3198 3199
3142 3142 3142 3142 3141 3141 3140 3138 3137 3136 3136 3136 3137 3138 3139 3140 3142 3144 3146 3148 3151 3156 3160 3165 3169 3173 3177 3180 3180 3182 3184 3187 3189 3189 3191 3193 3193 3193 3194 3194 3195 3196 3197 3198 3199
3137 3137 3137 3137 3137 3137 3136 3134 3134 3133 3133 3133 3134 3137 3136 3137 3137 3139 3142 3145 3148 3152 3157 3162 3165 3170 3174 3177 3177 3178 3183 3186 3188 3189 3190 3191 3193 3194 3195 3195 3195 3196 3196 3197 3198
3132 3132 3132 3132 3132 3132 3132 3131 3133 3131 3129 3130 3130 3131 3132 3134 3136 3137 3139 3142 3144 3148 3153 3158 3161 3163 3171 3176 3176 3178 3182 3186 3187 3189 3189 3189 3192 3194 3196 3196 3196 3195 3196 3196 3198
3126 3126 3127 3127 3127 3127 3127 3128 3127 3127 3124 3124 3125 3125 3129 3130 3132 3134 3136 3139 3142 3146 3150 3156 3156 3166 3170 3173 3177 3180 3182 3185 3187 3189 3190 3190 3189 3191 3192 3194 3197 3197 3197 3198 3198
3119 3119 3121 3121 3122 3123 3123 3124 3124 3122 3119 3118 3118 3118 3124 3126 3128 3130 3133 3136 3140 3144 3146 3150 3156 3163 3167 3170 3173 3176 3178 3181 3185 3186 3188 3188 3185 3184 3185 3190 3192 3194 3195 3196 3198
3113 3112 3113 3116 3119 3117 3119 3119 3121 3121 3118 3111 3111 3111 3116 3120 3122 3128 3130 3135 3136 3141 3145 3150 3155 3158 3162 3166 3170 3173 3176 3179 3180 3182 3182 3183 3180 3176 3179 3184 3186 3190 3191 3192 3195
3107 3106 3107 3109 3112 3112 3114 3116 3118 3120 3120 3107 3105 3105 3108 3113 3118 3122 3126 3130 3133 3137 3142 3146 3150 3154 3157 3163 3168 3171 3173 3175 3177 3177 3179 3178 3181 3173 3176 3179 3179 3183 3186 3189 3191
3100 3100 3101 3103 3106 3106 3109 3112 3115 3120 3111 3103 3102 3102 3105 3108 3114 3118 3122 3127 3132 3135 3138 3143 3146 3151 3155 3161 3166 3167 3169 3172 3173 3175 3176 3173 3177 3170 3172 3173 3175 3179 3182 3184 3187
3094 3095 3094 3098 3099 3099 3103 3108 3113 3105 3103 3099 3099 3099 3101 3104 3108 3114 3115 3119 3123 3130 3132 3136 3140 3146 3150 3154 3158 3161 3165 3170 3173 3174 3170 3168 3172 3165 3169 3171 3173 3175 3176 3179 3182
3087 3088 3089 3089 3090 3094 3097 3101 3094 3087 3094 3095 3095 3096 3097 3100 3104 3110 3112 3115 3119 3123 3127 3131 3136 3137 3141 3146 3152 3156 3161 3165 3174 3174 3165 3165 3163 3159 3165 3169 3170 3171 3171 3175 3178
3078 3081 3082 3081 3083 3087 3090 3085 3078 3082 3088 3091 3094 3093 3094 3095 3100 3106 3108 3110 3113 3117 3124 3126 3128 3132 3137 3144 3148 3151 3153 3161 3162 3163 3164 3162 3159 3160 3161 3164 3165 3166 3165 3167 3170
3068 3072 3073 3074 3075 3078 3078 3070 3072 3079 3086 3088 3089 3091 3091 3093 3095 3098 3103 3105 3109 3114 3119 3123 3125 3127 3134 3139 3141 3144 3150 3154 3155 3159 3162 3157 3156 3156 3159 3160 3161 3162 3161 3162 3164
3060 3062 3064 3066 3066 3067 3062 3062 3066 3075 3082 3085 3084 3086 3088 3087 3089 3091 3094 3101 3105 3111 3116 3119 3122 3124 3127 3128 3131 3138 3140 3145 3148 3148 3149 3155 3149 3154 3155 3157 3158 3158 3158 3158 3161
3052 3055 3055 3057 3059 3054 3053 3057 3062 3067 3076 3078 3079 3081 3083 3085 3084 3086 3089 3096 3101 3106 3109 3115 3117 3118 3122 3124 3128 3132 3134 3137 3138 3143 3144 3144 3142 3149 3151 3153 3155 3155 3155 3157 3159
3044 3047 3046 3047 3047 3047 3049 3050 3054 3059 3066 3071 3072 3074 3077 3080 3084 3083 3086 3093 3097 3101 3105 3109 3110 3115 3116 3120 3120 3123 3127 3131 3134 3137 3136 3140 3141 3144 3147 3149 3151 3153 3153 3154 3156
3038 3039 3038 3039 3039 3040 3041 3044 3047 3051 3055 3060 3063 3066 3070 3072 3075 3079 3082 3087 3090 3096 3099 3103 3102 3103 3105 3108 3115 3118 3121 3126 3129 3130 3131 3130 3136 3140 3142 3145 3147 3149 3150 3151 3153
3031 3031 3031 3032 3032 3034 3035 3039 3041 3044 3047 3051 3054 3057 3063 3064 3068 3071 3078 3082 3085 3091 3094 3097 3095 3098 3100 3104 3108 3112 3115 3118 3120 3122 3124 3127 3128 3132 3136 3139 3142 3144 3145 3146 3149
3025 3026 3026 3026 3029 3029 3031 3033 3034 3036 3041 3044 3047 3050 3053 3054 3059 3065 3073 3077 3079 3084 3089 3090 3090 3092 3093 3097 3101 3103 3107 3110 3113 3114 3117 3120 3121 3127 3129 3131 3135 3138 3140 3142 3144
3019 3020 3019 3019 3021 3024 3026 3027 3028 3030 3034 3036 3039 3042 3046 3050 3052 3057 3064 3068 3070 3074 3080 3084 3083 3086 3086 3090 3094 3095 3095 3100 3104 3108 3111 3111 3117 3121 3121 3122 3127 3131 3133 3136 3139